TimeEST,TemperatureF,Dew PointF,Humidity,Sea Level PressureIn,VisibilityMPH,Wind Direction,Wind SpeedMPH,Gust SpeedMPH,PrecipitationIn,Events,Conditions,WindDirDegrees,DateUTC
12:17 AM,35.6,35.6,100,29.17,7.0,WNW,13.8,-,N/A,Rain-Snow,Light Rain,300,2012-02-25 05:17:00
12:40 AM,35.6,33.8,93,29.16,10.0,NNW,10.4,-,N/A,,Mostly Cloudy,330,2012-02-25 05:40:00
12:55 AM,34.2,33.1,96,29.15,10.0,NW,11.5,-,0.01,,Mostly Cloudy,320,2012-02-25 05:55:00
1:55 AM,33.8,32.9,96,29.15,10.0,West,6.9,-,N/A,,Mostly Cloudy,260,2012-02-25 06:55:00
2:27 AM,33.8,33.8,100,29.16,10.0,WSW,10.4,-,N/A,,Overcast,250,2012-02-25 07:27:00
2:55 AM,34.0,32.9,96,29.15,10.0,WSW,8.1,-,N/A,,Mostly Cloudy,250,2012-02-25 07:55:00
3:55 AM,34.7,30.6,85,29.16,10.0,WSW,10.4,-,N/A,,Scattered Clouds,250,2012-02-25 08:55:00
4:55 AM,36.0,28.6,75,29.18,10.0,West,11.5,20.7,N/A,,Scattered Clouds,260,2012-02-25 09:55:00
5:55 AM,36.5,26.4,67,29.18,10.0,WSW,15.0,23.0,N/A,,Mostly Cloudy,240,2012-02-25 10:55:00
6:55 AM,36.9,23.5,59,29.19,10.0,WSW,19.6,31.1,N/A,,Scattered Clouds,240,2012-02-25 11:55:00
7:55 AM,38.1,22.8,54,29.20,10.0,WSW,24.2,31.1,N/A,,Partly Cloudy,240,2012-02-25 12:55:00
8:55 AM,39.7,22.1,49,29.22,10.0,WSW,25.3,34.5,N/A,,Scattered Clouds,250,2012-02-25 13:55:00
9:55 AM,39.9,22.6,50,29.24,10.0,WSW,21.9,36.8,N/A,,Mostly Cloudy,240,2012-02-25 14:55:00
10:55 AM,38.7,22.1,51,29.25,10.0,West,21.9,32.2,N/A,,Mostly Cloudy,270,2012-02-25 15:55:00
11:34 AM,39.2,23.0,52,29.26,10.0,WSW,24.2,33.4,N/A,,Unknown,250,2012-02-25 16:34:00
11:55 AM,39.4,21.4,49,29.26,10.0,West,20.7,36.8,0.00,,Unknown,260,2012-02-25 16:55:00
12:55 PM,40.5,20.7,45,29.26,10.0,West,27.6,36.8,0.00,,Mostly Cloudy,260,2012-02-25 17:55:00
1:55 PM,40.1,18.3,42,29.27,10.0,West,21.9,38.0,N/A,,Mostly Cloudy,260,2012-02-25 18:55:00
2:55 PM,40.1,17.6,40,29.30,10.0,West,23.0,29.9,N/A,,Mostly Cloudy,270,2012-02-25 19:55:00
3:55 PM,39.2,18.5,43,29.34,10.0,WNW,19.6,27.6,N/A,,Mostly Cloudy,290,2012-02-25 20:55:00
4:55 PM,37.0,18.9,48,29.39,10.0,West,20.7,32.2,N/A,,Scattered Clouds,280,2012-02-25 21:55:00
5:55 PM,36.0,17.8,48,29.45,10.0,West,18.4,29.9,N/A,,Scattered Clouds,280,2012-02-25 22:55:00
6:55 PM,35.4,19.4,52,29.50,10.0,West,17.3,27.6,N/A,,Mostly Cloudy,280,2012-02-25 23:55:00
7:55 PM,34.5,18.3,52,29.54,10.0,WNW,20.7,29.9,N/A,,Mostly Cloudy,290,2012-02-26 00:55:00
8:55 PM,32.4,15.4,50,29.60,10.0,WNW,20.7,34.5,N/A,,Mostly Cloudy,290,2012-02-26 01:55:00
9:55 PM,30.6,13.5,49,29.65,10.0,WNW,16.1,26.5,N/A,,Mostly Cloudy,290,2012-02-26 02:55:00
10:55 PM,29.1,12.4,50,29.70,10.0,WNW,20.7,35.7,N/A,,Mostly Cloudy,290,2012-02-26 03:55:00
11:55 PM,28.0,12.4,52,29.73,10.0,WNW,16.1,28.8,N/A,,Mostly Cloudy,300,2012-02-26 04:55:00